Flag for Germany Weather past 2 weeks in Wismar, Mecklenburg-Western Pomerania, Germany

Now
47 °F

Passing clouds.


Feels Like: 47 °F
Forecast: 39 / 61 °F
Wind: 2 mph from Southwest

Location: Schwerin


UV Index: 3 (Moderate)

Visibility: 22 mi


Pressure: 30.47 "Hg

Humidity: 70%

Dew point: 38 °F

Location of WismarLocation

Historic Weather in Wismar

°F

Wismar temperature yesterday

Maximum temperature yesterday: 50 °F (at 2:00 PM)
Minimum temperature yesterday: 39 °F (at 8:00 AM)
Average temperature yesterday: 45 °F

Past Weeks' High & Low Weather Summary

 TemperatureHumidityPressure
High65 °F (Apr 7, 6:00 PM)100% (Apr 1, 9:00 AM)30.46 "Hg (Apr 1, 9:00 AM)
Low35 °F (Apr 16, 6:00 AM)44% (Apr 12, 4:00 PM)29.65 "Hg (Apr 14, 7:00 AM)
Average48 °F80%29.94 "Hg
* Reported Apr 1 9:00 AM — Apr 16 9:00 AM, Wismar, Weather by CustomWeather, © 2014

Note: Actual official high and low records may vary slightly from our data, if they occured in-between our weather recording intervals... More about our weather records

Advertising

Historic Weather Conditions — Data for Previous 24 hours

 ConditionsComfort  
Time TempWeatherWind HumidityBarometerVisibility
9:00 AM
Apr 16
44 °FScattered clouds.1 mph78%30.46 "Hg28 mi
8:00 AM38 °FPassing clouds.1 mph94%30.45 "Hg12 mi
7:00 AM35 °FPassing clouds.1 mph98%30.44 "Hg8 mi
6:00 AM35 °FPassing clouds.2 mph98%30.42 "Hg17 mi
5:00 AM36 °FPassing clouds.1 mph97%30.41 "Hg13 mi
4:00 AM36 °FPassing clouds.2 mph94%30.39 "Hg22 mi
3:00 AM37 °FPassing clouds.2 mph90%30.37 "Hg22 mi
12:00 AM40 °FPassing clouds.5 mph81%30.34 "Hg31 mi
10:00 PM
Apr 15
42 °FPassing clouds.5 mph73%30.29 "Hg34 mi
9:00 PM44 °FOvercast.5 mph67%30.27 "Hg34 mi
8:00 PM46 °FOvercast.5 mph62%30.25 "Hg25 mi
7:00 PM48 °FPartly sunny.7 mph52%30.22 "Hg25 mi
6:00 PM48 °FOvercast.8 mph56%30.20 "Hg22 mi
4:00 PM47 °FOvercast.7 mph58%30.18 "Hg31 mi
3:00 PM48 °FOvercast.8 mph56%30.16 "Hg28 mi
2:00 PM50 °FOvercast.8 mph58%30.15 "Hg17 mi
1:00 PM49 °FPartly sunny.7 mph62%30.13 "Hg22 mi
12:00 PM49 °FPartly sunny.7 mph65%30.12 "Hg12 mi
10:00 AM44 °FPartly sunny.7 mph75%30.08 "Hg16 mi
Weather by CustomWeather, © 2014

See weather overview